Rome, NY

5:35 PM EST on February 07, 2016 (GMT -0500)
Griffiss

Weather History for KRME - December, 2013

Change the Weather History Date:

Thursday, December 5, 2013

  Actual Average Record
Temperature  
Mean Temperature 46 °F -  
Max Temperature 55 °F 32 °F 61 °F (1982)
Min Temperature 36 °F 19 °F 1 °F (1989)
Degree Days  
Heating Degree Days 20    
Moisture  
Dew Point 41 °F    
Average Humidity 81    
Maximum Humidity 90    
Minimum Humidity 70    
Precipitation  
Precipitation 0.04 in - - ()
Sea Level Pressure  
Sea Level Pressure 29.93 in    
Wind  
Wind Speed 9 mph (ESE)    
Max Wind Speed 16 mph    
Max Gust Speed -    
Visibility 9 miles    
Events Rain    
Averages and records for this station are not official NWS values.
T = Trace of Precipitation, MM = Missing Value Source: NWS Daily Summary

Daily Weather History Graph

Daily Weather History Graph

Search for Another Location

Airport or City:

Trip Planner

Search our weather history database for the weather conditions in past years. The results will help you decide how hot, cold, wet, or windy it might be!

Date:

Astronomy

Dec. 05, 2013 Rise Set
Actual Time 7:18 AM EST 4:26 PM EST
Civil Twilight 6:46 AM EST 4:58 PM EST
Nautical Twilight 6:10 AM EST 5:34 PM EST
Astronomical Twilight 5:36 AM EST 6:08 PM EST
Moon 9:34 AM EST (12/5) 7:46 PM EST (12/5)
Length of Visible Light 10h 12m
Length of Day
9h 08m
Waxing Crescent, 10% of the Moon is Illuminated
Dec 5
Waxing Crescent
Dec 9
First Quarter
Dec 17
Full
Dec 25
Last Quarter
Jan 1
New

Hourly Weather History & Observations

Time (EST) Temp. Windchill Dew Point Humidity Pressure Visibility Wind Dir Wind Speed Gust Speed Precip Events Conditions
12:53 AM 36.0 °F 29.0 °F 28.0 °F 73% 30.08 in 10.0 mi ESE 9.2 mph - N/A   Overcast
1:53 AM 37.9 °F 30.5 °F 28.9 °F 70% 30.04 in 10.0 mi East 11.5 mph - N/A   Overcast
2:53 AM 37.9 °F 30.9 °F 30.0 °F 73% 30.02 in 10.0 mi ESE 10.4 mph - N/A   Overcast
3:53 AM 39.0 °F 31.4 °F 32.0 °F 76% 30.00 in 10.0 mi ESE 12.7 mph - N/A   Overcast
4:53 AM 39.9 °F 32.9 °F 33.1 °F 77% 29.98 in 10.0 mi East 11.5 mph - N/A   Overcast
5:53 AM 41.0 °F 33.9 °F 34.0 °F 76% 29.96 in 9.0 mi East 12.7 mph - N/A   Overcast
6:53 AM 42.1 °F 37.1 °F 36.0 °F 79% 29.96 in 9.0 mi East 8.1 mph - N/A   Overcast
7:53 AM 43.0 °F 37.2 °F 37.0 °F 80% 29.95 in 8.0 mi East 10.4 mph - N/A   Overcast
8:53 AM 45.0 °F 40.1 °F 39.0 °F 80% 29.95 in 9.0 mi East 9.2 mph - N/A   Overcast
9:53 AM 46.9 °F - 41.0 °F 80% 29.94 in 10.0 mi East 12.7 mph - N/A   Overcast
10:53 AM 48.0 °F - 42.1 °F 80% 29.94 in 10.0 mi ESE 8.1 mph - N/A   Overcast
10:58 AM 48.0 °F - 42.1 °F 80% 29.92 in 10.0 mi East 8.1 mph - N/A   Overcast
11:53 AM 50.0 °F - 43.0 °F 77% 29.90 in 10.0 mi East 10.4 mph - N/A   Overcast
12:53 PM 50.0 °F - 44.1 °F 80% 29.89 in 10.0 mi ESE 5.8 mph - N/A   Overcast
1:29 PM 51.1 °F - 45.0 °F 80% 29.86 in 10.0 mi ESE 10.4 mph - N/A   Mostly Cloudy
1:51 PM 51.8 °F - 44.6 °F 76% 29.86 in 10.0 mi East 5.8 mph - N/A   Overcast
1:53 PM 52.0 °F - 45.0 °F 77% 29.87 in 10.0 mi East 4.6 mph - N/A   Overcast
2:38 PM 54.0 °F - 46.9 °F 77% 29.85 in 10.0 mi SSE 6.9 mph - N/A   Mostly Cloudy
2:53 PM 54.0 °F - 48.0 °F 80% 29.86 in 10.0 mi South 6.9 mph - N/A   Mostly Cloudy
3:53 PM 52.0 °F - 48.0 °F 86% 29.87 in 7.0 mi SSE 6.9 mph - 0.03 in Rain Light Rain
4:53 PM 53.1 °F - 48.9 °F 86% 29.85 in 10.0 mi SE 8.1 mph - 0.00 in   Scattered Clouds
5:53 PM 52.0 °F - 48.9 °F 89% 29.86 in 10.0 mi ESE 5.8 mph - N/A   Overcast
6:53 PM 54.0 °F - 48.9 °F 83% 29.86 in 10.0 mi SE 4.6 mph - 0.00 in   Overcast
7:42 PM 55.0 °F - 50.0 °F 83% 29.86 in 10.0 mi South 5.8 mph - N/A   Overcast
7:53 PM 55.0 °F - 50.0 °F 83% 29.89 in 10.0 mi West 8.1 mph - N/A   Overcast
8:51 PM 48.2 °F - 42.8 °F 82% 29.93 in 10.0 mi WNW 10.4 mph - 0.00 in Rain Light Rain
8:53 PM 46.9 °F - 43.0 °F 86% 29.94 in 10.0 mi WNW 10.4 mph - 0.00 in Rain Light Rain
9:10 PM 46.9 °F - 43.0 °F 86% 29.95 in 9.0 mi WNW 8.1 mph - 0.00 in   Overcast
9:51 PM 44.6 °F 37.4 °F 41.0 °F 87% 29.95 in 5.0 mi WNW 16.1 mph - 0.00 in Rain Light Rain
9:53 PM 45.0 °F 38.9 °F 41.0 °F 86% 29.95 in 5.0 mi WNW 12.7 mph - 0.00 in Rain Light Rain
10:16 PM 45.0 °F 39.7 °F 42.1 °F 90% 29.96 in 5.0 mi WNW 10.4 mph - 0.01 in   Overcast
10:45 PM 44.1 °F 39.0 °F 41.0 °F 89% 29.98 in 5.0 mi West 9.2 mph - 0.01 in Rain Light Rain
10:53 PM 44.1 °F 39.0 °F 41.0 °F 89% 29.97 in 5.0 mi WNW 9.2 mph - 0.01 in Rain Light Rain
11:09 PM 44.1 °F 40.8 °F 41.0 °F 89% 29.98 in 6.0 mi WNW 5.8 mph - 0.00 in   Overcast
11:53 PM 42.1 °F 36.6 °F 37.9 °F 85% 30.00 in 7.0 mi WNW 9.2 mph - 0.00 in Rain Light Rain